Location: Arthez
(43.0833°N, 0.2500°W)
Time: 04:00:30
(UTC+00:00)

NOSS 3-1 (A) - Pass Details

Date: 31 May 2022
Orbit: 711 x 1501 km, 63.4° (Epoch: 21 May)

Event Time Altitude Azimuth Distance (km) Brightness Sun altitude
Rises 22:49:46 0° 323° (NW) 3,931 7.9 -23.0°
Reaches altitude 10° 22:52:16 10° 325° (NW) 3,075 7.1 -23.1°
Maximum altitude 22:59:52 81° 54° (NE) 1,340 4.1 -23.5°
Enters shadow 23:04:03 35° 137° (SE) 2,096 4.7 -23.7°
